Weather reports worldwide

Advertisment
Moron de la Frontera, Spain (8397): temperature & dewpoint: 19.03.2019 18:00:00 - 25.03.2019 18:00:00 (CET)Moron de la Frontera, Spain (8397): wind speed: 19.03.2019 18:00:00 - 25.03.2019 18:00:00 (CET)Moron de la Frontera, Spain (8397): wind direction: 19.03.2019 18:00:00 - 25.03.2019 18:00:00 (CET)Moron de la Frontera, Spain (8397): reduced air pressure: 19.03.2019 18:00:00 - 25.03.2019 18:00:00 (CET)Moron de la Frontera, Spain (8397): visibility: 19.03.2019 18:00:00 - 25.03.2019 18:00:00 (CET)
Date & Time tt [°C] td [°C] ff [km/h] ff [kn] dd ppp [hPa] vv [km]
25.03.2019 18:00:00 - - - - - - -
25.03.2019 17:00:00 - - - - - - -
25.03.2019 16:00:00 23,1 8,0 18 10 E 1013,3 20
25.03.2019 15:00:00 - - - - - - -
25.03.2019 14:00:00 - - - - - - -
25.03.2019 13:00:00 21,4 7,6 22 12 E 1016,3 27
25.03.2019 12:00:00 - - - - - - -
25.03.2019 11:00:00 - - - - - - -
25.03.2019 10:00:00 17,7 8,3 15 8 E 1018,2 20
25.03.2019 09:00:00 - - - - - - -
25.03.2019 08:00:00 - - - - - - -
25.03.2019 07:00:00 11,5 7,2 9 5 E 1018,2 15
25.03.2019 06:00:00 - - - - - - -
25.03.2019 05:00:00 - - - - - - -
25.03.2019 04:00:00 10,3 6,3 8 4 ENE 1018,8 15
25.03.2019 03:00:00 - - - - - - -
25.03.2019 02:00:00 - - - - - - -
25.03.2019 01:00:00 10,2 5,4 5 3 E 1019,5 15
25.03.2019 00:00:00 - - - - - - -
24.03.2019 23:00:00 - - - - - - -
24.03.2019 22:00:00 13,9 5,8 4 2 NNE 1020,2 20
24.03.2019 21:00:00 - - - - - - -
24.03.2019 20:00:00 - - - - - - -
24.03.2019 19:00:00 19,5 6,3 13 7 SE 1018,5 30
24.03.2019 18:00:00 - - - - - - -
24.03.2019 17:00:00 - - - - - - -
24.03.2019 16:00:00 22,3 7,7 15 8 SE 1017,6 30
24.03.2019 15:00:00 - - - - - - -
24.03.2019 14:00:00 - - - - - - -
24.03.2019 13:00:00 21,4 9,0 15 8 SSE 1018,9 30
24.03.2019 12:00:00 - - - - - - -
24.03.2019 11:00:00 - - - - - - -
24.03.2019 10:00:00 16,5 9,0 16 9 E 1019,3 25
24.03.2019 09:00:00 - - - - - - -
24.03.2019 08:00:00 - - - - - - -
24.03.2019 07:00:00 11,7 7,6 13 7 E 1018,5 15
24.03.2019 06:00:00 - - - - - - -
24.03.2019 05:00:00 - - - - - - -
24.03.2019 04:00:00 11,4 7,1 11 6 E 1018,5 20
24.03.2019 03:00:00 - - - - - - -
24.03.2019 02:00:00 - - - - - - -
24.03.2019 01:00:00 12,1 6,6 9 5 E 1019,4 25
24.03.2019 00:00:00 - - - - - - -
23.03.2019 23:00:00 - - - - - - -
23.03.2019 22:00:00 14,5 3,9 11 6 SSE 1019,8 30
23.03.2019 21:00:00 - - - - - - -
23.03.2019 20:00:00 - - - - - - -
23.03.2019 19:00:00 17,6 4,9 18 10 SSE 1018,6 30
23.03.2019 18:00:00 - - - - - - -
23.03.2019 17:00:00 - - - - - - -
23.03.2019 16:00:00 19,9 5,5 28 15 SE 1018,8 25
23.03.2019 15:00:00 - - - - - - -
23.03.2019 14:00:00 - - - - - - -
23.03.2019 13:00:00 19,4 6,5 21 11 ESE 1020,7 25
23.03.2019 12:00:00 - - - - - - -
23.03.2019 11:00:00 - - - - - - -
23.03.2019 10:00:00 16,4 7,3 18 10 ESE 1022,1 20
23.03.2019 09:00:00 - - - - - - -
23.03.2019 08:00:00 - - - - - - -
23.03.2019 07:00:00 9,9 6,4 15 8 ENE 1022,1 20
23.03.2019 06:00:00 - - - - - - -
23.03.2019 05:00:00 - - - - - - -
23.03.2019 04:00:00 12,0 7,1 15 8 E 1022,4 15
23.03.2019 03:00:00 - - - - - - -
23.03.2019 02:00:00 - - - - - - -
23.03.2019 01:00:00 13,8 4,4 16 9 SE 1023,1 20
23.03.2019 00:00:00 - - - - - - -
22.03.2019 23:00:00 - - - - - - -
22.03.2019 22:00:00 11,8 2,8 8 4 SSE 1023,3 25
22.03.2019 21:00:00 - - - - - - -
22.03.2019 20:00:00 - - - - - - -
22.03.2019 19:00:00 18,1 2,8 11 6 SSE 1021,9 30
22.03.2019 18:00:00 - - - - - - -
22.03.2019 17:00:00 - - - - - - -
22.03.2019 16:00:00 19,9 2,7 18 10 E 1021,6 25
22.03.2019 15:00:00 - - - - - - -
22.03.2019 14:00:00 - - - - - - -
22.03.2019 13:00:00 17,9 2,6 18 10 E 1023,4 25
22.03.2019 12:00:00 - - - - - - -
22.03.2019 11:00:00 - - - - - - -
22.03.2019 10:00:00 13,6 6,2 16 9 E 1024,9 20
22.03.2019 09:00:00 - - - - - - -
22.03.2019 08:00:00 - - - - - - -
22.03.2019 07:00:00 7,0 5,0 9 5 E 1024,7 15
22.03.2019 06:00:00 - - - - - - -
22.03.2019 05:00:00 - - - - - - -
22.03.2019 04:00:00 7,8 3,7 8 4 ENE 1024,6 15
22.03.2019 03:00:00 - - - - - - -
22.03.2019 02:00:00 - - - - - - -
22.03.2019 01:00:00 10,8 2,9 8 4 NNE 1024,9 30
22.03.2019 00:00:00 - - - - - - -
21.03.2019 23:00:00 - - - - - - -
21.03.2019 22:00:00 11,1 1,6 5 3 S 1024,3 30
21.03.2019 21:00:00 - - - - - - -
21.03.2019 20:00:00 - - - - - - -
21.03.2019 19:00:00 16,1 1,0 11 6 S 1022,8 30
21.03.2019 18:00:00 - - - - - - -
21.03.2019 17:00:00 - - - - - - -
21.03.2019 16:00:00 18,6 0,2 11 6 E 1022,9 30
21.03.2019 15:00:00 - - - - - - -
21.03.2019 14:00:00 - - - - - - -
21.03.2019 13:00:00 17,2 1,6 11 6 E 1024,8 30
21.03.2019 12:00:00 - - - - - - -
21.03.2019 11:00:00 - - - - - - -
21.03.2019 10:00:00 13,2 5,6 13 7 E 1026,0 30
21.03.2019 09:00:00 - - - - - - -
21.03.2019 08:00:00 - - - - - - -
21.03.2019 07:00:00 6,6 4,4 9 5 E 1025,0 25
21.03.2019 06:00:00 - - - - - - -
21.03.2019 05:00:00 - - - - - - -
21.03.2019 04:00:00 7,6 3,3 5 3 NE 1024,5 25
21.03.2019 03:00:00 - - - - - - -
21.03.2019 02:00:00 - - - - - - -
21.03.2019 01:00:00 11,8 3,8 11 6 SSE 1024,8 30
21.03.2019 00:00:00 - - - - - - -
20.03.2019 23:00:00 - - - - - - -
20.03.2019 22:00:00 12,7 2,6 15 8 SSE 1024,6 30
20.03.2019 21:00:00 - - - - - - -
20.03.2019 20:00:00 - - - - - - -
20.03.2019 19:00:00 16,9 2,9 9 5 SE 1023,2 30
20.03.2019 18:00:00 - - - - - - -
20.03.2019 17:00:00 - - - - - - -
20.03.2019 16:00:00 19,1 4,5 5 3 SSW 1022,3 30
20.03.2019 15:00:00 - - - - - - -
20.03.2019 14:00:00 - - - - - - -
20.03.2019 13:00:00 18,1 6,0 9 5 NE 1024,1 30
20.03.2019 12:00:00 - - - - - - -
20.03.2019 11:00:00 - - - - - - -
20.03.2019 10:00:00 14,0 7,8 11 6 E 1025,0 25
20.03.2019 09:00:00 - - - - - - -
20.03.2019 08:00:00 - - - - - - -
20.03.2019 07:00:00 6,0 3,3 9 5 E 1024,2 20
20.03.2019 06:00:00 - - - - - - -
20.03.2019 05:00:00 - - - - - - -
20.03.2019 04:00:00 7,4 1,7 4 2 NNE 1023,6 25
20.03.2019 03:00:00 - - - - - - -
20.03.2019 02:00:00 - - - - - - -
20.03.2019 01:00:00 8,6 -0,9 11 6 E 1023,8 30
20.03.2019 00:00:00 - - - - - - -
19.03.2019 23:00:00 - - - - - - -
19.03.2019 22:00:00 14,5 -0,4 8 4 ESE 1023,3 30
19.03.2019 21:00:00 - - - - - - -
19.03.2019 20:00:00 - - - - - - -
19.03.2019 19:00:00 18,4 1,0 15 8 E 1021,0 30
19.03.2019 18:00:00 - - - - - - -

tt = temperature
td = dewpoint
ff = wind speed
dd = wind direction
ppp = reduced air pressure
vv = visibility

Next stations